Regional Weather Roundup
Issued by NWS

Home | Current Version | Previous Version | Text Only | Print | Product List | Glossary On
Versions: 1 2 3 4 5 6 7 8 9 10 11 12 13 14 15 16 17 18 19 20 21 22 23 24 25 26 27 28 29 30 31 32 33 34 35 36 37 38 39 40 41 42 43 44 45 46 47 48 49 50
000
ASUS45 KREV 300410
RWRNV
NEVADA REGIONAL WEATHER ROUNDUP
NATIONAL WEATHER SERVICE RENO NV
800 PM PST THU JAN 29 2015

NOTE: "FAIR" INDICATES FEW OR NO CLOUDS BELOW 12,000 FEET WITH NO
SIGNIFICANT WEATHER AND/OR OBSTRUCTIONS TO VISIBILITY.

NVZ001-003-004-300500-
WESTERN NEVADA

CITY           SKY/WX    TMP DP  RH WIND       PRES   REMARKS
RENO           CLOUDY    50  34  54 E6        30.19R
CARSON CITY    CLOUDY    46  34  61 NE12      30.19S
SLIDE MTN        N/A     30  28  93 E6          N/A
PYRAMID LAKE     N/A     46 N/A N/A SE1         N/A
FALLON         MOCLDY    43  38  82 NE3       30.18F
LOVELOCK       CLOUDY    44  39  82 CALM      30.18F
HAWTHORNE      CLOUDY    46  36  66 CALM      30.18S
$$

NVZ002-CAZ072-073-300500-
NORTHERN AND CENTRAL SIERRA

CITY           SKY/WX    TMP DP  RH WIND       PRES   REMARKS
S. LAKE TAHOE  CLOUDY    35  29  78 CALM      30.18S
TRUCKEE        CLOUDY    37  32  81 CALM      30.19S
SQUAW VLY 8000   N/A     34  32  93 CALM        N/A
SUSANVILLE     CLOUDY    39  32  75 W3        30.19S
BLUE CANYON    PTCLDY    47  33  58 NE5       30.17S
MAMMOTH LAKES  MOCLDY    32  23  69 CALM      30.20R
BRIDGEPORT     FAIR      32  24  72 CALM      30.18R
$$

NVZ030-031-036-300500-
NORTHERN NEVADA

CITY           SKY/WX    TMP DP  RH WIND       PRES   REMARKS
ELKO           CLOUDY    40  33  76 E6        30.22S
WINNEMUCCA     PTCLDY    39  33  79 NE15      30.22S
WENDOVER       CLOUDY    41  32  70 CALM      30.27S
$$

NVZ035-037-300500-
CENTRAL NEVADA

CITY           SKY/WX    TMP DP  RH WIND       PRES   REMARKS
ELY            LGT RAIN  35  34  96 CALM      30.25S
EUREKA           N/A     40  32  73 E8        30.21S
$$

NVZ013-014-300500-
SOUTH CENTRAL NEVADA

CITY           SKY/WX    TMP DP  RH WIND       PRES   REMARKS
TONOPAH        PTCLDY    40  33  76 CALM      30.18F
$$

NVZ017-020-022-300500-
SOUTHERN NEVADA

CITY           SKY/WX    TMP DP  RH WIND       PRES   REMARKS
LAS VEGAS      MOCLDY    59  39  47 S7        30.03F
N. LAS VEGAS   MOCLDY    58  36  43 E5        30.06S
NELLIS AFB     MOCLDY    61  38  43 NE10      30.06S
HENDERSON      CLOUDY    53  43  68 SE3       30.09F
MERCURY        CLOUDY    53  39  59 NE10      30.10S
$$



USA.gov is the U.S. government's official web portal to all federal, state and local government web resources and services.